Regional Weather Roundup
Issued by NWS

Home | Current Version | Previous Version | Text Only | Print | Product List | Glossary Off
Versions: 1 2 3 4 5 6 7 8 9 10 11 12 13 14 15 16 17 18 19 20 21 22 23 24 25 26 27 28 29 30 31 32 33 34 35 36 37 38 39 40 41 42 43 44 45 46 47 48 49 50

000
ASUS43 KIND 292359
RWRIN

WEATHER ROUNDUP FOR INDIANA
NATIONAL WEATHER SERVICE INDIANAPOLIS IN
800 PM EDT SUN MAY 29 2016

NOTE: "FAIR" INDICATES FEW OR NO CLOUDS BELOW 12,000 FEET WITH NO
SIGNIFICANT WEATHER AND/OR OBSTRUCTIONS TO VISIBILITY.

* - STATION DOES NOT REPORT WEATHER SUCH AS PRECIPITATION OR FOG.

+ - STATION NOT QUALITY CONTROLLED BY THE NATIONAL WEATHER SERVICE.
    USE DATA WITH CAUTION...ESPECIALLY DEWPOINT AND RELATIVE
    HUMIDITY OBSERVATIONS.

INZ001>003-010>013-019-020-300100-
NORTHWEST INDIANA

CITY           SKY/WX    TMP DP  RH WIND       PRES   REMARKS
GARY /AIRPORT/ MOSUNNY   81  64  57 W18       29.99S
RENSSELAER +   MOSUNNY   81  48  32 W9        29.99S

$$

LMZ046-743>745-300100-
SOUTHERN LAKE MICHIGAN

STATION/POSITION TIME  TEMP    WIND        PRES    WAVE
                       AIR SEA DIR/SP/G            HT
                 (UTC) (F)     (DEG/KT/KT) (MB)    (FT)
BURNS HARBOR     2300   69     280/  7/  8 1015.9F
MICHIGAN CITY    2300   71     250/ 13/ 15   N/A
5NW MICH CITY    2300   66 59  260/  6/  8   N/A     1

$$

INZ004-005-014>016-021>024-300100-
NORTH CENTRAL INDIANA

CITY           SKY/WX    TMP DP  RH WIND       PRES   REMARKS
GOSHEN         SUNNY     76  57  51 NW16      29.98R
6HR MIN TEMP:  76; 6HR MAX TEMP:  85;

SOUTH BEND     SUNNY     77  56  48 W14       29.99S
6HR MIN TEMP:  77; 6HR MAX TEMP:  85;


$$

INZ006>009-017-018-025>027-300100-
NORTHEAST INDIANA

CITY           SKY/WX    TMP DP  RH WIND       PRES   REMARKS
ANGOLA *+        N/A     84  79  84 W13       29.96S HX  96
FORT WAYNE     MOSUNNY   84  51  31 W17       29.97R
6HR MIN TEMP:  84; 6HR MAX TEMP:  89;


$$

INZ028-029-035-036-043>045-051>053-300100-
WEST CENTRAL INDIANA

CITY           SKY/WX    TMP DP  RH WIND       PRES   REMARKS
CRAWFORDSVL +  CLOUDY    81  52  37 W12       30.01S
6HR MIN TEMP:  79; 6HR MAX TEMP:  85;

LAFAYETTE      SUNNY     79  53  40 W10       29.99F
6HR MIN TEMP:  79; 6HR MAX TEMP:  85;

TERRE HAUTE    CLOUDY    83  59  44 SW10      30.01F
6HR MIN TEMP:  82; 6HR MAX TEMP:  86;


$$

INZ030>032-037>040-046>048-054>057-064-065-300100-
CENTRAL INDIANA

CITY           SKY/WX    TMP DP  RH WIND       PRES   REMARKS
INDIANAPOLIS   PTSUNNY   81  55  40 W9        29.99F
6HR MIN TEMP:  79; 6HR MAX TEMP:  85; 6HR PCP: TRACE;

-EAGLE CREEK   CLOUDY    82  55  39 W10       29.99F
6HR MIN TEMP:  82; 6HR MAX TEMP:  85;

KOKOMO *+      SUNNY     82  52  34 NW16      29.98S
6HR MIN TEMP:  82; 6HR MAX TEMP:  86;

SHELBYVILLE    SUNNY     80  62  54 SW7       30.00S
6HR MIN TEMP:  80; 6HR MAX TEMP:  89;


$$

INZ033-034-041-042-049-050-058-059-300100-
EAST CENTRAL INDIANA

CITY           SKY/WX    TMP DP  RH WIND       PRES   REMARKS
MUNCIE         MOSUNNY   85  52  32 W8        29.99S
6HR MIN TEMP:  77; 6HR MAX TEMP:  89; 6HR PCP:  0.01;


$$

INZ060-061-067>069-081>083-085>088-300100-
SOUTHWEST INDIANA

CITY           SKY/WX    TMP DP  RH WIND       PRES   REMARKS
EVANSVILLE     PTSUNNY   80  65  59 S3        30.03S
6HR MIN TEMP:  72; 6HR MAX TEMP:  85; 6HR PCP:  0.06;

HUNTINGBURG *+ SUNNY     77  64  65 SW5       30.03S
6HR MIN TEMP:  66; 6HR MAX TEMP:  88;


$$

INZ062-063-066-070>080-084-089>092-300100-
SOUTH CENTRAL AND SOUTHEAST INDIANA

CITY           SKY/WX    TMP DP  RH WIND       PRES   REMARKS
BLOOMINGTON    SUNNY     77  67  71 W5        30.01F
6HR MIN TEMP:  68; 6HR MAX TEMP:  85; 6HR PCP:  0.76;

MADISON *+     CLOUDY    81  63  54 W5        30.02F
SEYMOUR +      MOSUNNY   81  66  61 NW5       30.00F

$$




USA.gov is the U.S. government's official web portal to all federal, state and local government web resources and services.